Estació meteorològica de Bellmunt (Osona, Osona)

Consulta les dades en temps real de l'estació meteorològica de Bellmunt





Hora UTC 05:15
Temperatura 17.6 ºC
Humitat 62.0 %
Pressió 1016.3 hPa
Pluja 0.0 mm
Velocitat vent 0.0 km/h
Direcció vent N

Dades diàries 2026-09-06



Hora UTC (hivern +1h; estiu +2h)
Temperatura (ºC) Humitat (%) Pressió (hPa) Velocitat vent (km/h) Precipitació (mm)
Hora UTC Aire Humitat Pressió Vel. Dir. Vel. Max Dir. Intent. màx 5 min.
00:05 21.0 56.0 1017.5 0.0 N 0.0 0.0
00:10 20.8 57.0 1017.4 0.0 N 0.0 0.0
00:15 20.6 57.0 1017.4 0.0 N 0.0 0.0
00:20 20.8 57.0 1017.3 0.0 N 0.0 0.0
00:25 20.9 56.0 1017.3 0.0 NNE 0.0 0.0
00:30 20.8 57.0 1017.3 0.0 NNE 0.0 0.0
00:35 20.8 56.0 1017.3 0.0 NNE 0.0 0.0
00:40 20.8 57.0 1017.3 0.0 N 0.0 0.0
00:45 20.6 57.0 1017.3 0.0 N 0.0 0.0
00:50 20.4 57.0 1017.3 0.0 NNE 0.0 0.0
00:55 20.4 58.0 1017.3 0.0 NNE 0.0 0.0
01:00 20.3 57.0 1017.2 0.0 NNE 0.0 0.0
01:05 20.3 57.0 1017.2 0.0 NNE 0.0 0.0
01:10 20.3 58.0 1017.2 0.0 NNE 0.0 0.0
01:15 20.2 58.0 1017.2 0.0 NNE 0.0 0.0
01:20 20.3 58.0 1017.1 0.0 NNE 0.0 0.0
01:25 20.2 58.0 1017.1 3.2 NNE 4.8 0.0
01:30 20.1 58.0 1017.1 0.0 NNE 4.8 0.0
01:35 20.2 58.0 1017.1 0.0 NNE 3.2 0.0
01:40 20.1 58.0 1017.1 0.0 NNE 0.0 0.0
01:45 20.0 58.0 1017.0 0.0 NNE 0.0 0.0
01:50 19.8 58.0 1017.0 0.0 NNE 0.0 0.0
01:55 19.6 59.0 1017.1 0.0 NNE 0.0 0.0
02:00 19.4 59.0 1017.0 0.0 NNE 0.0 0.0
02:05 19.6 59.0 1017.1 0.0 NNE 0.0 0.0
02:10 19.7 59.0 1017.0 0.0 NNE 0.0 0.0
02:15 19.7 58.0 1017.0 0.0 NNE 0.0 0.0
02:20 19.8 59.0 1017.0 0.0 NNE 0.0 0.0
02:25 19.9 58.0 1016.9 0.0 NNE 0.0 0.0
02:30 19.9 58.0 1016.9 3.2 NNE 3.2 0.0
02:35 19.9 58.0 1017.0 0.0 NNE 4.8 0.0
02:40 19.8 58.0 1016.9 0.0 NNE 3.2 0.0
02:45 19.7 58.0 1016.9 0.0 NE 0.0 0.0
02:50 19.7 59.0 1016.8 0.0 NNE 0.0 0.0
02:55 19.8 58.0 1016.8 0.0 NNE 0.0 0.0
03:00 19.8 58.0 1016.8 3.2 NNE 4.8 0.0
03:05 19.8 58.0 1016.8 3.2 NNE 4.8 0.0
03:10 19.8 59.0 1016.8 1.6 NNE 4.8 0.0
03:15 19.7 59.0 1016.8 0.0 NNE 4.8 0.0
03:20 19.6 59.0 1016.8 0.0 NNE 1.6 0.0
03:25 19.5 59.0 1016.8 0.0 NNE 0.0 0.0
03:30 19.5 59.0 1016.8 0.0 NNE 0.0 0.0
03:35 19.4 59.0 1016.8 0.0 NNE 0.0 0.0
03:40 19.3 60.0 1016.7 0.0 NE 0.0 0.0
03:45 19.2 59.0 1016.7 0.0 NE 0.0 0.0
03:50 18.9 60.0 1016.7 0.0 NE 0.0 0.0
03:55 18.7 61.0 1016.7 0.0 NE 0.0 0.0
04:00 18.7 61.0 1016.6 0.0 NE 0.0 0.0
04:05 18.6 61.0 1016.5 0.0 NE 0.0 0.0
04:10 18.5 61.0 1016.5 0.0 NE 0.0 0.0
04:15 18.6 61.0 1016.5 0.0 NE 0.0 0.0
04:20 18.8 61.0 1016.5 0.0 NE 0.0 0.0
04:25 18.8 60.0 1016.5 0.0 NE 0.0 0.0
04:30 18.8 60.0 1016.5 0.0 NE 0.0 0.0
04:35 18.7 60.0 1016.4 1.6 NNE 4.8 0.0
04:40 18.7 61.0 1016.3 1.6 N 4.8 0.0
04:45 18.8 60.0 1016.3 1.6 N 3.2 0.0
04:50 18.5 61.0 1016.3 0.0 N 3.2 0.0
04:55 18.3 61.0 1016.3 0.0 N 0.0 0.0
05:00 18.2 61.0 1016.3 0.0 N 3.2 0.0
05:05 18.0 62.0 1016.4 0.0 N 3.2 0.0
05:10 17.8 62.0 1016.3 0.0 N 1.6 0.0
05:15 17.6 62.0 1016.3 0.0 N 1.6 0.0
Màxima 21.0 62.0 1017.5 3.2 NNE 4.8 0.0
Mínima 17.6 56.0 1016.3
Total 0.0